Flag for Ukraine Weather past 2 weeks in Luhansk, Ukraine

Now
63 °F

Clear.


Feels Like: 63 °F
Forecast: 50 / 72 °F
Wind: 1 mph from North

Location: Rostov-Na-Donu

Current Time: Apr 26, 2015 at 8:27:14 PM

Latest Report: Apr 26, 2015 at 8:00 PM


Visibility: N/A

Pressure: 30.04 "Hg

Humidity: 52%

Dew point: 45 °F

Location of LuhanskLocation

Historic Weather in Luhansk — Graph

°F

Luhansk temperature yesterday

Maximum temperature yesterday: 59 °F (at 2:00 PM)
Minimum temperature yesterday: 48 °F (at 12:30 AM)
Average temperature yesterday: 52 °F

Past Weeks' High & Low Weather Summary

 TemperatureHumidityPressure
High70 °F (Apr 18, 3:00 PM)94% (Apr 14, 6:00 PM)30.18 "Hg (Apr 14, 6:00 PM)
Low34 °F (Apr 22, 3:00 AM)28% (Apr 12, 1:00 PM)29.56 "Hg (Apr 18, 3:00 PM)
Average49 °F69%29.91 "Hg
* Reported Apr 11 7:00 PM — Apr 26 7:00 PM, Luhansk, Weather by CustomWeather, © 2015

Note: Actual official high and low records may vary slightly from our data, if they occured in-between our weather recording intervals... More about our weather records

Advertising

Luhansk weather history for previous 24 hours

 ConditionsComfort  
Time TempWeatherWind HumidityBarometerVisibility
7:00 PM
Sun, Apr 26
66 °FScattered clouds.1 mph43%30.04 "HgN/A
6:00 PM68 °FScattered clouds.6 mph46%30.04 "HgN/A
5:00 PM70 °FScattered clouds.8 mph50%30.04 "HgN/A
4:00 PM70 °FScattered clouds.6 mph50%30.04 "HgN/A
3:00 PM70 °FPassing clouds.1 mph46%30.07 "HgN/A
2:00 PM68 °FSunny.3 mph49%30.07 "Hg10 mi
1:00 PM66 °FPassing clouds.3 mph52%30.09 "HgN/A
12:00 PM64 °FPassing clouds.3 mph56%30.09 "HgN/A
11:00 AM63 °FPassing clouds.6 mph56%30.09 "HgN/A
10:00 AM61 °FPassing clouds.3 mph55%30.09 "HgN/A
9:00 AM57 °FSunny.1 mph63%30.12 "Hg10 mi
8:30 AM55 °FSunny.1 mph67%30.12 "Hg10 mi
8:00 AM52 °FSunny.1 mph77%30.09 "Hg10 mi
7:30 AM52 °FPassing clouds.3 mph77%30.09 "HgN/A
7:00 AM50 °FPassing clouds.6 mph82%30.09 "HgN/A
6:30 AM50 °FPassing clouds.6 mph82%30.09 "HgN/A
6:00 AM48 °FPassing clouds.3 mph87%30.09 "HgN/A
5:30 AM48 °FClear.8 mph87%30.09 "Hg10 mi
5:00 AM48 °FClear.8 mph87%30.07 "HgN/A
4:30 AM48 °FClear.10 mph87%30.07 "HgN/A
4:00 AM48 °FClear.10 mph87%30.07 "HgN/A
3:30 AM50 °FClear.8 mph82%30.07 "HgN/A
3:00 AM50 °FClear.13 mph82%30.07 "HgN/A
2:30 AM50 °FClear.13 mph82%30.07 "HgN/A
2:00 AM50 °FClear.13 mph82%30.07 "HgN/A
1:30 AM50 °FClear.13 mph82%30.07 "HgN/A
1:00 AM50 °FClear.15 mph76%30.07 "HgN/A
12:00 AM50 °FClear.15 mph76%30.07 "HgN/A
11:30 PM
Sat, Apr 25
50 °FClear.15 mph76%30.07 "HgN/A
11:00 PM52 °FClear.17 mph72%30.07 "HgN/A
10:30 PM52 °FClear.15 mph67%30.07 "HgN/A
10:00 PM52 °FClear.15 mph67%30.07 "HgN/A
9:30 PM52 °FClear.17 mph67%30.07 "HgN/A
9:00 PM54 °FClear.17 mph63%30.07 "HgN/A
8:30 PM54 °FClear.17 mph63%30.07 "HgN/A
8:00 PM55 °FClear.13 mph59%30.04 "HgN/A
Weather by CustomWeather, © 2015

See weather overviewHow to use our weather pages